Statesboro, GA

12:24 AM EDT on May 25, 2017 (GMT -0400)
Statesboro-Bulloch County

Weather History for KTBR - January, 2013

Change the Weather History Date:

Thursday, January 17, 2013

  Actual Average (KSBO) Record (KSBO)
Temperature  
Mean Temperature 59 °F -  
Max Temperature 77 °F 59 °F 77 °F (2017)
Min Temperature 41 °F 34 °F 32 °F (2014)
Degree Days  
Heating Degree Days 6    
Growing Degree Days 9 (Base 50)    
Moisture  
Dew Point 54 °F    
Average Humidity 86    
Maximum Humidity 100    
Minimum Humidity 57    
Precipitation  
Precipitation 0.00 in - - ()
Sea Level Pressure  
Sea Level Pressure 29.94 in    
Wind  
Wind Speed 7 mph (SW)    
Max Wind Speed 23 mph    
Max Gust Speed 37 mph    
Visibility 9 miles    
Events Rain    
Averages and records for this station are not official NWS values.
T = Trace of Precipitation, MM = Missing Value Source: NWS Daily Summary

Daily Weather History Graph

Daily Weather History Graph

Search for Another Location

Airport or City:

Trip Planner

Search our weather history database for the weather conditions in past years. The results will help you decide how hot, cold, wet, or windy it might be!

Date:

Astronomy

Jan. 17, 2013 Rise Set
Actual Time 7:28 AM EST 5:46 PM EST
Civil Twilight 7:01 AM EST 6:12 PM EST
Nautical Twilight 6:31 AM EST 6:42 PM EST
Astronomical Twilight 6:02 AM EST 7:12 PM EST
Moon 10:59 AM EST (1/17) No Moon Set
Length of Visible Light 11h 11m
Length of Day
10h 18m
Waxing Crescent, 37% of the Moon is Illuminated
Jan 17
Waxing Crescent
Jan 18
First Quarter
Jan 26
Full
Feb 3
Last Quarter
Feb 10
New

Hourly Weather History & Observations

Time (EST) Temp. Windchill Dew Point Humidity Pressure Visibility Wind Dir Wind Speed Gust Speed Precip Events Conditions
12:15 AM 66.2 °F - 60.8 °F 83% 29.98 in 10.0 mi SSW 6.9 mph - N/A   Clear
12:35 AM 66.2 °F - 60.8 °F 83% 29.98 in 10.0 mi SSW 4.6 mph - N/A   Clear
12:55 AM 66.2 °F - 60.8 °F 83% 29.98 in 10.0 mi SSW 4.6 mph - N/A   Scattered Clouds
1:35 AM 64.4 °F - 60.8 °F 88% 29.98 in 10.0 mi SSW 5.8 mph - N/A   Clear
1:55 AM 64.4 °F - 60.8 °F 88% 29.98 in 10.0 mi South 5.8 mph - N/A   Clear
2:15 AM 64.4 °F - 60.8 °F 88% 29.98 in 10.0 mi Calm Calm - N/A   Clear
2:35 AM 62.6 °F - 60.8 °F 94% 29.97 in 10.0 mi South 3.5 mph - N/A   Scattered Clouds
2:55 AM 64.4 °F - 62.6 °F 94% 29.97 in 10.0 mi Calm Calm - N/A   Mostly Cloudy
3:15 AM 64.4 °F - 60.8 °F 88% 29.97 in 10.0 mi Calm Calm - N/A   Overcast
3:35 AM 62.6 °F - 62.6 °F 100% 29.96 in 10.0 mi Calm Calm - N/A   Mostly Cloudy
3:55 AM 62.6 °F - 62.6 °F 100% 29.95 in 10.0 mi Calm Calm - N/A   Scattered Clouds
4:15 AM 60.8 °F - 60.8 °F 100% 29.95 in 10.0 mi Calm Calm - N/A   Mostly Cloudy
4:35 AM 62.6 °F - 62.6 °F 100% 29.94 in 10.0 mi Calm Calm - N/A   Mostly Cloudy
4:55 AM 60.8 °F - 60.8 °F 100% 29.94 in 10.0 mi SE 3.5 mph - N/A   Scattered Clouds
5:15 AM 60.8 °F - 60.8 °F 100% 29.93 in 10.0 mi Calm Calm - N/A   Scattered Clouds
5:35 AM 60.8 °F - 60.8 °F 100% 29.94 in 10.0 mi Calm Calm - N/A   Scattered Clouds
5:55 AM 60.8 °F - 60.8 °F 100% 29.94 in 10.0 mi Calm Calm - N/A   Mostly Cloudy
6:15 AM 62.6 °F - 62.6 °F 100% 29.94 in 10.0 mi SE 3.5 mph - N/A   Scattered Clouds
6:35 AM 60.8 °F - 60.8 °F 100% 29.93 in 10.0 mi SSE 4.6 mph - N/A   Mostly Cloudy
6:55 AM 60.8 °F - 60.8 °F 100% 29.94 in 10.0 mi SSE 4.6 mph - N/A   Overcast
7:15 AM 60.8 °F - 60.8 °F 100% 29.93 in 10.0 mi SSE 4.6 mph - N/A   Overcast
7:35 AM 60.8 °F - 60.8 °F 100% 29.93 in 10.0 mi SSE 5.8 mph - N/A   Overcast
7:55 AM 60.8 °F - 60.8 °F 100% 29.93 in 10.0 mi SSE 4.6 mph - N/A   Overcast
8:15 AM 62.6 °F - 62.6 °F 100% 29.93 in 10.0 mi SSE 6.9 mph - N/A   Overcast
8:35 AM 62.6 °F - 62.6 °F 100% 29.93 in 10.0 mi SSE 6.9 mph - N/A   Overcast
8:55 AM 62.6 °F - 62.6 °F 100% 29.93 in 10.0 mi South 6.9 mph - N/A   Overcast
9:15 AM 64.4 °F - 62.6 °F 94% 29.92 in 10.0 mi South 8.1 mph - N/A   Overcast
9:55 AM 68.0 °F - 60.8 °F 78% 29.91 in 10.0 mi South 8.1 mph - N/A   Mostly Cloudy
10:15 AM 69.8 °F - 60.8 °F 73% 29.91 in 10.0 mi South 11.5 mph 16.1 mph N/A   Mostly Cloudy
10:35 AM 71.6 °F - 60.8 °F 69% 29.90 in 10.0 mi South 12.7 mph 16.1 mph N/A   Overcast
10:55 AM 73.4 °F - 60.8 °F 65% 29.87 in 10.0 mi South 11.5 mph 21.9 mph N/A   Mostly Cloudy
11:15 AM 73.4 °F - 60.8 °F 65% 29.86 in 10.0 mi South 12.7 mph 23.0 mph N/A   Scattered Clouds
11:35 AM 77.0 °F - 60.8 °F 57% 29.84 in 10.0 mi SSW 13.8 mph 19.6 mph N/A   Mostly Cloudy
11:55 AM 77.0 °F - 60.8 °F 57% 29.83 in 10.0 mi South 18.4 mph 25.3 mph N/A   Mostly Cloudy
12:15 PM 73.4 °F - 60.8 °F 65% 29.82 in 10.0 mi South 18.4 mph 26.5 mph N/A   Overcast
12:35 PM 73.4 °F - 60.8 °F 65% 29.79 in 10.0 mi South 19.6 mph 26.5 mph N/A   Overcast
12:55 PM 62.6 °F - 59.0 °F 88% 29.83 in 5.0 mi WSW 15.0 mph 28.8 mph N/A Rain Light Rain
1:15 PM 57.2 °F - 57.2 °F 100% 29.83 in 5.0 mi West 15.0 mph 25.3 mph N/A   Light Drizzle
1:35 PM 57.2 °F - 57.2 °F 100% 29.83 in 10.0 mi WSW 18.4 mph 26.5 mph N/A   Overcast
1:55 PM 55.4 °F - 55.4 °F 100% 29.84 in 5.0 mi WSW 15.0 mph 20.7 mph N/A   Overcast
2:15 PM 55.4 °F - 55.4 °F 100% 29.84 in 3.0 mi WSW 13.8 mph 20.7 mph N/A   Drizzle
2:35 PM 53.6 °F - 53.6 °F 100% 29.85 in 3.0 mi West 18.4 mph 25.3 mph N/A Rain Rain
2:55 PM 51.8 °F - 51.8 °F 100% 29.87 in 3.0 mi WSW 23.0 mph 36.8 mph N/A   Drizzle
3:15 PM 50.0 °F - 50.0 °F 100% 29.88 in 2.5 mi West 12.7 mph 27.6 mph N/A   Heavy Drizzle
3:35 PM 50.0 °F - 50.0 °F 100% 29.87 in 10.0 mi WSW 15.0 mph 23.0 mph N/A   Overcast
3:55 PM 50.0 °F - 50.0 °F 100% 29.87 in 10.0 mi WSW 9.2 mph - N/A   Overcast
4:15 PM 51.8 °F - 48.2 °F 88% 29.87 in 10.0 mi WSW 8.1 mph - N/A   Mostly Cloudy
4:55 PM 51.8 °F - 46.4 °F 82% 29.87 in 10.0 mi SW 8.1 mph - N/A   Scattered Clouds
5:55 PM 51.8 °F - 42.8 °F 71% 29.92 in 10.0 mi West 18.4 mph 23.0 mph N/A   Overcast
6:15 PM 50.0 °F - 41.0 °F 71% 29.94 in 10.0 mi West 18.4 mph 24.2 mph N/A   Scattered Clouds
6:35 PM 46.4 °F 39.0 °F 35.6 °F 66% 29.97 in 10.0 mi West 19.6 mph 32.2 mph N/A   Mostly Cloudy
6:55 PM 46.4 °F 41.5 °F 35.6 °F 66% 29.97 in 10.0 mi West 10.4 mph 21.9 mph N/A   Overcast
7:35 PM 46.4 °F 40.7 °F 35.6 °F 66% 30.01 in 10.0 mi West 12.7 mph 21.9 mph N/A   Overcast
8:15 PM 46.4 °F 39.2 °F 35.6 °F 66% 30.05 in 10.0 mi West 18.4 mph 24.2 mph N/A   Overcast
8:35 PM 46.4 °F 40.7 °F 35.6 °F 66% 30.06 in 10.0 mi West 12.7 mph 19.6 mph N/A   Overcast
9:15 PM 42.8 °F 35.8 °F 33.8 °F 70% 30.10 in 10.0 mi WNW 13.8 mph 29.9 mph N/A   Scattered Clouds
9:35 PM 42.8 °F 36.2 °F 33.8 °F 70% 30.10 in 10.0 mi WNW 12.7 mph 16.1 mph N/A   Scattered Clouds
9:55 PM 41.0 °F 35.8 °F 33.8 °F 76% 30.11 in 10.0 mi WNW 8.1 mph - N/A   Scattered Clouds
10:15 PM 41.0 °F 35.2 °F 33.8 °F 76% 30.11 in 10.0 mi WNW 9.2 mph - N/A   Scattered Clouds
10:35 PM 41.0 °F 35.2 °F 33.8 °F 76% 30.11 in 10.0 mi West 9.2 mph - N/A   Scattered Clouds
10:55 PM 42.8 °F 37.5 °F 35.6 °F 76% 30.12 in 10.0 mi WNW 9.2 mph - N/A   Overcast